Regional Weather Roundup
Issued by NWS Cleveland, OH

Home | Current Version | Previous Version | Text Only | Print | Product List | Glossary On
Versions: 1 2 3 4 5 6 7 8 9 10 11 12 13 14 15 16 17 18 19 20 21 22 23 24 25 26 27 28 29 30 31 32 33 34 35 36 37 38 39 40 41 42 43 44 45 46 47 48 49 50
000
ASUS41 KCLE 010412
RWRCLE
OHIO REGIONAL WEATHER ROUNDUP
NATIONAL WEATHER SERVICE WILMINGTON, OH
1200 AM EDT MON MAY 01 2017

NOTE: "FAIR" INDICATES FEW OR NO CLOUDS BELOW 12,000 FEET WITH NO
SIGNIFICANT WEATHER AND/OR OBSTRUCTIONS TO VISIBILITY.

OHZ001>008-015>018-024>027-034-035-043-044-010500-
   NORTHWEST OHIO

CITY           SKY/WX    TMP DP  RH WIND       PRES   REMARKS
DEFIANCE       FAIR      61  60  97 E9        29.71F
FINDLAY        FAIR      68  62  81 SE8       29.72F
TOLEDO EXPRESS CLOUDY    55  55 100 SE3       29.74F FOG
TOLEDO EXEC    FAIR      57  57 100 E7        29.75F FOG
LIMA           FAIR      72  61  68 S12       29.73F
$$

OHZ009>014-019>023-028>033-038-089-010500-
   NORTHEAST OHIO

CITY           SKY/WX    TMP DP  RH WIND       PRES   REMARKS
CLE-HOPKINS    CLOUDY    67  59  75 SE5       29.79F
CLE-LAKEFRONT  FAIR      65  60  84 E3        29.76F
CUY CO. ARPT   NOT AVBL
LORAIN-ELYRIA  FAIR      63  58  83 SE7       29.77F
ASHTABULA      FAIR      50  49  96 E6        29.83F
AKRON-CANTON   CLOUDY    72  62  71 S12       29.81F
WOOSTER        FAIR      71  62  73 S12       29.79F
MANSFIELD      FAIR      74  60  61 S10       29.77F
YOUNGSTOWN     CLOUDY    72  61  68 S3        29.83F
$$

OHZ042-051>053-060>062-070>072-077>081-010500-
  SOUTHWEST OHIO

CITY           SKY/WX    TMP DP  RH WIND       PRES   REMARKS
CINC-COVINGTON CLOUDY    71  62  73 S16       29.74F
CINC-LUNKEN    FAIR      70  64  81 S9G18     29.75S
HAMILTON       MOCLDY    73  62  68 S10G22    29.75R
DAYTON         CLOUDY    71  60  68 SW13      29.75S
WRIGHT-PAT AFB CLOUDY    74  61  64 S18G24    29.73F
DAYTON GENERAL FAIR      72  60  66 S18G28    29.75R
WILMINGTON     FAIR      69  63  81 S12       29.77F
$$

OHZ036-037-039>041-045>050-054>059-063>069-073>076-082>088-010500-
  CENTRAL AND SOUTHEAST OHIO

CITY           SKY/WX    TMP DP  RH WIND       PRES   REMARKS
COLUMBUS       MOCLDY    75  61  61 S7        29.78F
OSU AIRPORT    MOCLDY    75  60  59 S12       29.76F
BOLTON FIELD   FAIR      72  62  70 S13       29.78F
RICKENBACK AFB FAIR      71  62  72 S8        29.78F
NEWARK         FAIR      76  60  57 S6        29.79F
MARION         MOCLDY    74  58  57 S15G25    29.75F
LANCASTER      FAIR      76  60  57 W6        29.80F
ZANESVILLE     FAIR      78  57  48 S12       29.82F
NEW PHILLY     FAIR      69  65  86 SE8       29.83F
$$



USA.gov is the U.S. government's official web portal to all federal, state and local government web resources and services.